Index of /20260428/WXO-DD/model_rdps/10km/18/067
Name Last modified Size Description
Parent Directory -
20260428T18Z_MSC_RDPS_AbsoluteVorticity_IsbL-0250_RLatLon0.09_PT067H.grib2 2026-04-28 21:00 606K
20260428T18Z_MSC_RDPS_AbsoluteVorticity_IsbL-0500_RLatLon0.09_PT067H.grib2 2026-04-28 21:00 558K
20260428T18Z_MSC_RDPS_AbsoluteVorticity_IsbL-0700_RLatLon0.09_PT067H.grib2 2026-04-28 21:00 614K
20260428T18Z_MSC_RDPS_AbsoluteVorticity_IsbL-0850_RLatLon0.09_PT067H.grib2 2026-04-28 21:00 774K
20260428T18Z_MSC_RDPS_AirTemp_AGL-120m_RLatLon0.09_PT067H.grib2 2026-04-28 21:00 381K
20260428T18Z_MSC_RDPS_AirTemp_AGL-2m_RLatLon0.09_PT067H.grib2 2026-04-28 21:00 629K
20260428T18Z_MSC_RDPS_AirTemp_AGL-40m_RLatLon0.09_PT067H.grib2 2026-04-28 21:00 398K
20260428T18Z_MSC_RDPS_AirTemp_AGL-80m_RLatLon0.09_PT067H.grib2 2026-04-28 21:00 389K
20260428T18Z_MSC_RDPS_AirTemp_IsbL-0001_RLatLon0.09_PT067H.grib2 2026-04-28 21:00 310K
20260428T18Z_MSC_RDPS_AirTemp_IsbL-0005_RLatLon0.09_PT067H.grib2 2026-04-28 21:00 289K
20260428T18Z_MSC_RDPS_AirTemp_IsbL-0010_RLatLon0.09_PT067H.grib2 2026-04-28 21:00 390K
20260428T18Z_MSC_RDPS_AirTemp_IsbL-0020_RLatLon0.09_PT067H.grib2 2026-04-28 21:00 413K
20260428T18Z_MSC_RDPS_AirTemp_IsbL-0030_RLatLon0.09_PT067H.grib2 2026-04-28 21:00 338K
20260428T18Z_MSC_RDPS_AirTemp_IsbL-0050_RLatLon0.09_PT067H.grib2 2026-04-28 21:00 312K
20260428T18Z_MSC_RDPS_AirTemp_IsbL-0100_RLatLon0.09_PT067H.grib2 2026-04-28 21:00 420K
20260428T18Z_MSC_RDPS_AirTemp_IsbL-0150_RLatLon0.09_PT067H.grib2 2026-04-28 21:00 415K
20260428T18Z_MSC_RDPS_AirTemp_IsbL-0175_RLatLon0.09_PT067H.grib2 2026-04-28 21:00 407K
20260428T18Z_MSC_RDPS_AirTemp_IsbL-0200_RLatLon0.09_PT067H.grib2 2026-04-28 21:00 410K
20260428T18Z_MSC_RDPS_AirTemp_IsbL-0225_RLatLon0.09_PT067H.grib2 2026-04-28 21:00 411K
20260428T18Z_MSC_RDPS_AirTemp_IsbL-0250_RLatLon0.09_PT067H.grib2 2026-04-28 21:00 417K
20260428T18Z_MSC_RDPS_AirTemp_IsbL-0275_RLatLon0.09_PT067H.grib2 2026-04-28 21:00 397K
20260428T18Z_MSC_RDPS_AirTemp_IsbL-0300_RLatLon0.09_PT067H.grib2 2026-04-28 21:00 403K
20260428T18Z_MSC_RDPS_AirTemp_IsbL-0350_RLatLon0.09_PT067H.grib2 2026-04-28 21:00 418K
20260428T18Z_MSC_RDPS_AirTemp_IsbL-0400_RLatLon0.09_PT067H.grib2 2026-04-28 21:00 421K
20260428T18Z_MSC_RDPS_AirTemp_IsbL-0450_RLatLon0.09_PT067H.grib2 2026-04-28 21:00 393K
20260428T18Z_MSC_RDPS_AirTemp_IsbL-0500_RLatLon0.09_PT067H.grib2 2026-04-28 21:00 402K
20260428T18Z_MSC_RDPS_AirTemp_IsbL-0550_RLatLon0.09_PT067H.grib2 2026-04-28 21:00 418K
20260428T18Z_MSC_RDPS_AirTemp_IsbL-0600_RLatLon0.09_PT067H.grib2 2026-04-28 21:00 438K
20260428T18Z_MSC_RDPS_AirTemp_IsbL-0650_RLatLon0.09_PT067H.grib2 2026-04-28 21:00 452K
20260428T18Z_MSC_RDPS_AirTemp_IsbL-0700_RLatLon0.09_PT067H.grib2 2026-04-28 21:00 475K
20260428T18Z_MSC_RDPS_AirTemp_IsbL-0750_RLatLon0.09_PT067H.grib2 2026-04-28 21:00 513K
20260428T18Z_MSC_RDPS_AirTemp_IsbL-0800_RLatLon0.09_PT067H.grib2 2026-04-28 21:00 565K
20260428T18Z_MSC_RDPS_AirTemp_IsbL-0850_RLatLon0.09_PT067H.grib2 2026-04-28 21:00 500K
20260428T18Z_MSC_RDPS_AirTemp_IsbL-0875_RLatLon0.09_PT067H.grib2 2026-04-28 21:00 519K
20260428T18Z_MSC_RDPS_AirTemp_IsbL-0900_RLatLon0.09_PT067H.grib2 2026-04-28 21:00 659K
20260428T18Z_MSC_RDPS_AirTemp_IsbL-0925_RLatLon0.09_PT067H.grib2 2026-04-28 21:00 526K
20260428T18Z_MSC_RDPS_AirTemp_IsbL-0950_RLatLon0.09_PT067H.grib2 2026-04-28 21:00 527K
20260428T18Z_MSC_RDPS_AirTemp_IsbL-0970_RLatLon0.09_PT067H.grib2 2026-04-28 21:00 520K
20260428T18Z_MSC_RDPS_AirTemp_IsbL-0985_RLatLon0.09_PT067H.grib2 2026-04-28 21:00 510K
20260428T18Z_MSC_RDPS_AirTemp_IsbL-1000_RLatLon0.09_PT067H.grib2 2026-04-28 21:00 496K
20260428T18Z_MSC_RDPS_AirTemp_IsbL-1015_RLatLon0.09_PT067H.grib2 2026-04-28 21:00 494K
20260428T18Z_MSC_RDPS_Albedo_Sfc_RLatLon0.09_PT067H.grib2 2026-04-28 21:00 155K
20260428T18Z_MSC_RDPS_CAPE_Sfc_RLatLon0.09_PT067H.grib2 2026-04-28 21:00 1.7M
20260428T18Z_MSC_RDPS_CIN_Sfc_RLatLon0.09_PT067H.grib2 2026-04-28 21:00 1.1M
20260428T18Z_MSC_RDPS_CloudWater_EAtm_RLatLon0.09_PT067H.grib2 2026-04-28 21:00 218K
20260428T18Z_MSC_RDPS_ConvectivePrecip-Accum_Sfc_RLatLon0.09_PT067H.grib2 2026-04-28 21:00 1.2M
20260428T18Z_MSC_RDPS_DewPointDepression_AGL-2m_RLatLon0.09_PT067H.grib2 2026-04-28 21:00 401K
20260428T18Z_MSC_RDPS_DewPointDepression_IsbL-0001_RLatLon0.09_PT067H.grib2 2026-04-28 21:00 193
20260428T18Z_MSC_RDPS_DewPointDepression_IsbL-0005_RLatLon0.09_PT067H.grib2 2026-04-28 21:00 193
20260428T18Z_MSC_RDPS_DewPointDepression_IsbL-0010_RLatLon0.09_PT067H.grib2 2026-04-28 21:00 193
20260428T18Z_MSC_RDPS_DewPointDepression_IsbL-0020_RLatLon0.09_PT067H.grib2 2026-04-28 21:00 193
20260428T18Z_MSC_RDPS_DewPointDepression_IsbL-0030_RLatLon0.09_PT067H.grib2 2026-04-28 21:00 193
20260428T18Z_MSC_RDPS_DewPointDepression_IsbL-0050_RLatLon0.09_PT067H.grib2 2026-04-28 21:00 79K
20260428T18Z_MSC_RDPS_DewPointDepression_IsbL-0100_RLatLon0.09_PT067H.grib2 2026-04-28 21:00 125K
20260428T18Z_MSC_RDPS_DewPointDepression_IsbL-0150_RLatLon0.09_PT067H.grib2 2026-04-28 21:00 145K
20260428T18Z_MSC_RDPS_DewPointDepression_IsbL-0175_RLatLon0.09_PT067H.grib2 2026-04-28 21:00 178K
20260428T18Z_MSC_RDPS_DewPointDepression_IsbL-0200_RLatLon0.09_PT067H.grib2 2026-04-28 21:00 215K
20260428T18Z_MSC_RDPS_DewPointDepression_IsbL-0225_RLatLon0.09_PT067H.grib2 2026-04-28 21:00 254K
20260428T18Z_MSC_RDPS_DewPointDepression_IsbL-0250_RLatLon0.09_PT067H.grib2 2026-04-28 21:00 294K
20260428T18Z_MSC_RDPS_DewPointDepression_IsbL-0275_RLatLon0.09_PT067H.grib2 2026-04-28 21:00 303K
20260428T18Z_MSC_RDPS_DewPointDepression_IsbL-0300_RLatLon0.09_PT067H.grib2 2026-04-28 21:00 322K
20260428T18Z_MSC_RDPS_DewPointDepression_IsbL-0350_RLatLon0.09_PT067H.grib2 2026-04-28 21:00 328K
20260428T18Z_MSC_RDPS_DewPointDepression_IsbL-0400_RLatLon0.09_PT067H.grib2 2026-04-28 21:00 337K
20260428T18Z_MSC_RDPS_DewPointDepression_IsbL-0450_RLatLon0.09_PT067H.grib2 2026-04-28 21:00 345K
20260428T18Z_MSC_RDPS_DewPointDepression_IsbL-0500_RLatLon0.09_PT067H.grib2 2026-04-28 21:00 349K
20260428T18Z_MSC_RDPS_DewPointDepression_IsbL-0550_RLatLon0.09_PT067H.grib2 2026-04-28 21:00 357K
20260428T18Z_MSC_RDPS_DewPointDepression_IsbL-0600_RLatLon0.09_PT067H.grib2 2026-04-28 21:00 368K
20260428T18Z_MSC_RDPS_DewPointDepression_IsbL-0650_RLatLon0.09_PT067H.grib2 2026-04-28 21:00 371K
20260428T18Z_MSC_RDPS_DewPointDepression_IsbL-0700_RLatLon0.09_PT067H.grib2 2026-04-28 21:00 379K
20260428T18Z_MSC_RDPS_DewPointDepression_IsbL-0750_RLatLon0.09_PT067H.grib2 2026-04-28 21:00 397K
20260428T18Z_MSC_RDPS_DewPointDepression_IsbL-0800_RLatLon0.09_PT067H.grib2 2026-04-28 21:00 434K
20260428T18Z_MSC_RDPS_DewPointDepression_IsbL-0850_RLatLon0.09_PT067H.grib2 2026-04-28 21:00 468K
20260428T18Z_MSC_RDPS_DewPointDepression_IsbL-0875_RLatLon0.09_PT067H.grib2 2026-04-28 21:00 471K
20260428T18Z_MSC_RDPS_DewPointDepression_IsbL-0900_RLatLon0.09_PT067H.grib2 2026-04-28 21:00 462K
20260428T18Z_MSC_RDPS_DewPointDepression_IsbL-0925_RLatLon0.09_PT067H.grib2 2026-04-28 21:00 447K
20260428T18Z_MSC_RDPS_DewPointDepression_IsbL-0950_RLatLon0.09_PT067H.grib2 2026-04-28 21:00 441K
20260428T18Z_MSC_RDPS_DewPointDepression_IsbL-0970_RLatLon0.09_PT067H.grib2 2026-04-28 21:00 433K
20260428T18Z_MSC_RDPS_DewPointDepression_IsbL-0985_RLatLon0.09_PT067H.grib2 2026-04-28 21:00 430K
20260428T18Z_MSC_RDPS_DewPointDepression_IsbL-1000_RLatLon0.09_PT067H.grib2 2026-04-28 21:00 426K
20260428T18Z_MSC_RDPS_DewPointDepression_IsbL-1015_RLatLon0.09_PT067H.grib2 2026-04-28 21:00 418K
20260428T18Z_MSC_RDPS_DewPoint_AGL-2m_RLatLon0.09_PT067H.grib2 2026-04-28 21:00 397K
20260428T18Z_MSC_RDPS_DownwardLongwaveRadiationFlux-Accum_Sfc_RLatLon0.09_PT067H.grib2 2026-04-28 21:00 413K
20260428T18Z_MSC_RDPS_DownwardShortwaveRadiationFlux-Accum_NTAtm_RLatLon0.09_PT067H.grib2 2026-04-28 21:00 162K
20260428T18Z_MSC_RDPS_DownwardShortwaveRadiationFlux-Accum_Sfc_RLatLon0.09_PT067H.grib2 2026-04-28 21:00 600K
20260428T18Z_MSC_RDPS_FreezingRain-Accum1h_Sfc_RLatLon0.09_PT067H.grib2 2026-04-28 21:00 36K
20260428T18Z_MSC_RDPS_FreezingRain-Accum_Sfc_RLatLon0.09_PT067H.grib2 2026-04-28 21:00 218K
20260428T18Z_MSC_RDPS_GeopotentialHeight_IsbL-0001_RLatLon0.09_PT067H.grib2 2026-04-28 21:00 313K
20260428T18Z_MSC_RDPS_GeopotentialHeight_IsbL-0005_RLatLon0.09_PT067H.grib2 2026-04-28 21:00 302K
20260428T18Z_MSC_RDPS_GeopotentialHeight_IsbL-0010_RLatLon0.09_PT067H.grib2 2026-04-28 21:00 304K
20260428T18Z_MSC_RDPS_GeopotentialHeight_IsbL-0020_RLatLon0.09_PT067H.grib2 2026-04-28 21:00 303K
20260428T18Z_MSC_RDPS_GeopotentialHeight_IsbL-0030_RLatLon0.09_PT067H.grib2 2026-04-28 21:00 305K
20260428T18Z_MSC_RDPS_GeopotentialHeight_IsbL-0050_RLatLon0.09_PT067H.grib2 2026-04-28 21:00 306K
20260428T18Z_MSC_RDPS_GeopotentialHeight_IsbL-0100_RLatLon0.09_PT067H.grib2 2026-04-28 21:00 282K
20260428T18Z_MSC_RDPS_GeopotentialHeight_IsbL-0150_RLatLon0.09_PT067H.grib2 2026-04-28 21:00 226K
20260428T18Z_MSC_RDPS_GeopotentialHeight_IsbL-0175_RLatLon0.09_PT067H.grib2 2026-04-28 21:00 229K
20260428T18Z_MSC_RDPS_GeopotentialHeight_IsbL-0200_RLatLon0.09_PT067H.grib2 2026-04-28 21:00 263K
20260428T18Z_MSC_RDPS_GeopotentialHeight_IsbL-0225_RLatLon0.09_PT067H.grib2 2026-04-28 21:00 265K
20260428T18Z_MSC_RDPS_GeopotentialHeight_IsbL-0250_RLatLon0.09_PT067H.grib2 2026-04-28 21:00 266K
20260428T18Z_MSC_RDPS_GeopotentialHeight_IsbL-0275_RLatLon0.09_PT067H.grib2 2026-04-28 21:00 264K
20260428T18Z_MSC_RDPS_GeopotentialHeight_IsbL-0300_RLatLon0.09_PT067H.grib2 2026-04-28 21:00 234K
20260428T18Z_MSC_RDPS_GeopotentialHeight_IsbL-0350_RLatLon0.09_PT067H.grib2 2026-04-28 21:00 231K
20260428T18Z_MSC_RDPS_GeopotentialHeight_IsbL-0400_RLatLon0.09_PT067H.grib2 2026-04-28 21:00 227K
20260428T18Z_MSC_RDPS_GeopotentialHeight_IsbL-0450_RLatLon0.09_PT067H.grib2 2026-04-28 21:00 295K
20260428T18Z_MSC_RDPS_GeopotentialHeight_IsbL-0500_RLatLon0.09_PT067H.grib2 2026-04-28 21:00 290K
20260428T18Z_MSC_RDPS_GeopotentialHeight_IsbL-0550_RLatLon0.09_PT067H.grib2 2026-04-28 21:00 286K
20260428T18Z_MSC_RDPS_GeopotentialHeight_IsbL-0600_RLatLon0.09_PT067H.grib2 2026-04-28 21:00 282K
20260428T18Z_MSC_RDPS_GeopotentialHeight_IsbL-0650_RLatLon0.09_PT067H.grib2 2026-04-28 21:00 254K
20260428T18Z_MSC_RDPS_GeopotentialHeight_IsbL-0700_RLatLon0.09_PT067H.grib2 2026-04-28 21:00 333K
20260428T18Z_MSC_RDPS_GeopotentialHeight_IsbL-0750_RLatLon0.09_PT067H.grib2 2026-04-28 21:00 335K
20260428T18Z_MSC_RDPS_GeopotentialHeight_IsbL-0800_RLatLon0.09_PT067H.grib2 2026-04-28 21:00 344K
20260428T18Z_MSC_RDPS_GeopotentialHeight_IsbL-0850_RLatLon0.09_PT067H.grib2 2026-04-28 21:00 354K
20260428T18Z_MSC_RDPS_GeopotentialHeight_IsbL-0875_RLatLon0.09_PT067H.grib2 2026-04-28 21:00 355K
20260428T18Z_MSC_RDPS_GeopotentialHeight_IsbL-0900_RLatLon0.09_PT067H.grib2 2026-04-28 21:00 361K
20260428T18Z_MSC_RDPS_GeopotentialHeight_IsbL-0925_RLatLon0.09_PT067H.grib2 2026-04-28 21:00 364K
20260428T18Z_MSC_RDPS_GeopotentialHeight_IsbL-0950_RLatLon0.09_PT067H.grib2 2026-04-28 21:00 367K
20260428T18Z_MSC_RDPS_GeopotentialHeight_IsbL-0970_RLatLon0.09_PT067H.grib2 2026-04-28 21:00 372K
20260428T18Z_MSC_RDPS_GeopotentialHeight_IsbL-0985_RLatLon0.09_PT067H.grib2 2026-04-28 21:00 381K
20260428T18Z_MSC_RDPS_GeopotentialHeight_IsbL-1000_RLatLon0.09_PT067H.grib2 2026-04-28 21:00 393K
20260428T18Z_MSC_RDPS_GeopotentialHeight_IsbL-1015_RLatLon0.09_PT067H.grib2 2026-04-28 21:00 409K
20260428T18Z_MSC_RDPS_Humidex_Sfc_RLatLon0.09_PT067H.grib2 2026-04-28 21:00 2.4M
20260428T18Z_MSC_RDPS_IcePellets-Accum1h_Sfc_RLatLon0.09_PT067H.grib2 2026-04-28 21:00 6.7K
20260428T18Z_MSC_RDPS_IcePellets-Accum_Sfc_RLatLon0.09_PT067H.grib2 2026-04-28 21:00 29K
20260428T18Z_MSC_RDPS_KIndex_Sfc_RLatLon0.09_PT067H.grib2 2026-04-28 21:00 2.4M
20260428T18Z_MSC_RDPS_LatentHeatNetFlux_Sfc_RLatLon0.09_PT067H.grib2 2026-04-28 21:00 342K
20260428T18Z_MSC_RDPS_LiftedIndex-MU-VT_IsbL-0500_RLatLon0.09_PT067H.grib2 2026-04-28 21:00 2.4M
20260428T18Z_MSC_RDPS_NetLongwaveRadiationFlux-Accum_Sfc_RLatLon0.09_PT067H.grib2 2026-04-28 21:00 589K
20260428T18Z_MSC_RDPS_NetShortwaveRadiationFlux-Accum_Sfc_RLatLon0.09_PT067H.grib2 2026-04-28 21:00 602K
20260428T18Z_MSC_RDPS_PlanetaryBoundaryLayerHeight_Sfc_RLatLon0.09_PT067H.grib2 2026-04-28 21:00 1.1M
20260428T18Z_MSC_RDPS_Precip-Accum1h_Sfc_RLatLon0.09_PT067H.grib2 2026-04-28 21:00 1.2M
20260428T18Z_MSC_RDPS_Precip-Accum_Sfc_RLatLon0.09_PT067H.grib2 2026-04-28 21:00 2.1M
20260428T18Z_MSC_RDPS_PrecipRate_Sfc_RLatLon0.09_PT067H.grib2 2026-04-28 21:00 182K
20260428T18Z_MSC_RDPS_PrecipType-Instant_Sfc_RLatLon0.09_PT067H.grib2 2026-04-28 21:00 570K
20260428T18Z_MSC_RDPS_Pressure-Trend3h_Sfc_RLatLon0.09_PT067H.grib2 2026-04-28 21:00 1.2M
20260428T18Z_MSC_RDPS_Pressure_MSL_RLatLon0.09_PT067H.grib2 2026-04-28 21:00 325K
20260428T18Z_MSC_RDPS_Pressure_PVU-1.5_RLatLon0.09_PT067H.grib2 2026-04-28 21:00 2.5M
20260428T18Z_MSC_RDPS_Pressure_PVU-1_RLatLon0.09_PT067H.grib2 2026-04-28 21:00 2.4M
20260428T18Z_MSC_RDPS_Pressure_PVU-2_RLatLon0.09_PT067H.grib2 2026-04-28 21:00 2.4M
20260428T18Z_MSC_RDPS_Pressure_Sfc_RLatLon0.09_PT067H.grib2 2026-04-28 21:00 500K
20260428T18Z_MSC_RDPS_RadiativeTemp_Sfc_RLatLon0.09_PT067H.grib2 2026-04-28 21:00 311K
20260428T18Z_MSC_RDPS_Rain-Accum1h_Sfc_RLatLon0.09_PT067H.grib2 2026-04-28 21:00 532K
20260428T18Z_MSC_RDPS_Rain-Accum_Sfc_RLatLon0.09_PT067H.grib2 2026-04-28 21:00 1.7M
20260428T18Z_MSC_RDPS_RelativeHumidity_AGL-2m_RLatLon0.09_PT067H.grib2 2026-04-28 21:00 1.0M
20260428T18Z_MSC_RDPS_RelativeHumidity_IsbL-0010_RLatLon0.09_PT067H.grib2 2026-04-28 21:00 630K
20260428T18Z_MSC_RDPS_RelativeHumidity_IsbL-0020_RLatLon0.09_PT067H.grib2 2026-04-28 21:00 677K
20260428T18Z_MSC_RDPS_RelativeHumidity_IsbL-0030_RLatLon0.09_PT067H.grib2 2026-04-28 21:00 605K
20260428T18Z_MSC_RDPS_RelativeHumidity_IsbL-0050_RLatLon0.09_PT067H.grib2 2026-04-28 21:00 364K
20260428T18Z_MSC_RDPS_RelativeHumidity_IsbL-0100_RLatLon0.09_PT067H.grib2 2026-04-28 21:00 275K
20260428T18Z_MSC_RDPS_RelativeHumidity_IsbL-0150_RLatLon0.09_PT067H.grib2 2026-04-28 21:00 392K
20260428T18Z_MSC_RDPS_RelativeHumidity_IsbL-0175_RLatLon0.09_PT067H.grib2 2026-04-28 21:00 460K
20260428T18Z_MSC_RDPS_RelativeHumidity_IsbL-0200_RLatLon0.09_PT067H.grib2 2026-04-28 21:00 549K
20260428T18Z_MSC_RDPS_RelativeHumidity_IsbL-0225_RLatLon0.09_PT067H.grib2 2026-04-28 21:00 618K
20260428T18Z_MSC_RDPS_RelativeHumidity_IsbL-0250_RLatLon0.09_PT067H.grib2 2026-04-28 21:00 686K
20260428T18Z_MSC_RDPS_RelativeHumidity_IsbL-0275_RLatLon0.09_PT067H.grib2 2026-04-28 21:00 714K
20260428T18Z_MSC_RDPS_RelativeHumidity_IsbL-0300_RLatLon0.09_PT067H.grib2 2026-04-28 21:00 756K
20260428T18Z_MSC_RDPS_RelativeHumidity_IsbL-0350_RLatLon0.09_PT067H.grib2 2026-04-28 21:00 775K
20260428T18Z_MSC_RDPS_RelativeHumidity_IsbL-0400_RLatLon0.09_PT067H.grib2 2026-04-28 21:00 787K
20260428T18Z_MSC_RDPS_RelativeHumidity_IsbL-0450_RLatLon0.09_PT067H.grib2 2026-04-28 21:00 793K
20260428T18Z_MSC_RDPS_RelativeHumidity_IsbL-0500_RLatLon0.09_PT067H.grib2 2026-04-28 21:00 798K
20260428T18Z_MSC_RDPS_RelativeHumidity_IsbL-0550_RLatLon0.09_PT067H.grib2 2026-04-28 21:00 812K
20260428T18Z_MSC_RDPS_RelativeHumidity_IsbL-0600_RLatLon0.09_PT067H.grib2 2026-04-28 21:00 832K
20260428T18Z_MSC_RDPS_RelativeHumidity_IsbL-0650_RLatLon0.09_PT067H.grib2 2026-04-28 21:00 843K
20260428T18Z_MSC_RDPS_RelativeHumidity_IsbL-0700_RLatLon0.09_PT067H.grib2 2026-04-28 21:00 865K
20260428T18Z_MSC_RDPS_RelativeHumidity_IsbL-0750_RLatLon0.09_PT067H.grib2 2026-04-28 21:00 910K
20260428T18Z_MSC_RDPS_RelativeHumidity_IsbL-0800_RLatLon0.09_PT067H.grib2 2026-04-28 21:00 1.0M
20260428T18Z_MSC_RDPS_RelativeHumidity_IsbL-0850_RLatLon0.09_PT067H.grib2 2026-04-28 21:00 1.0M
20260428T18Z_MSC_RDPS_RelativeHumidity_IsbL-0875_RLatLon0.09_PT067H.grib2 2026-04-28 21:00 1.1M
20260428T18Z_MSC_RDPS_RelativeHumidity_IsbL-0900_RLatLon0.09_PT067H.grib2 2026-04-28 21:00 1.1M
20260428T18Z_MSC_RDPS_RelativeHumidity_IsbL-0925_RLatLon0.09_PT067H.grib2 2026-04-28 21:00 1.1M
20260428T18Z_MSC_RDPS_RelativeHumidity_IsbL-0950_RLatLon0.09_PT067H.grib2 2026-04-28 21:00 1.1M
20260428T18Z_MSC_RDPS_RelativeHumidity_IsbL-0970_RLatLon0.09_PT067H.grib2 2026-04-28 21:00 1.1M
20260428T18Z_MSC_RDPS_RelativeHumidity_IsbL-0985_RLatLon0.09_PT067H.grib2 2026-04-28 21:00 1.0M
20260428T18Z_MSC_RDPS_RelativeHumidity_IsbL-1000_RLatLon0.09_PT067H.grib2 2026-04-28 21:00 1.0M
20260428T18Z_MSC_RDPS_RelativeHumidity_IsbL-1015_RLatLon0.09_PT067H.grib2 2026-04-28 21:00 1.0M
20260428T18Z_MSC_RDPS_Runoff-Accum_Sfc_RLatLon0.09_PT067H.grib2 2026-04-28 21:00 62K
20260428T18Z_MSC_RDPS_SWEATIndex_Sfc_RLatLon0.09_PT067H.grib2 2026-04-28 21:00 2.4M
20260428T18Z_MSC_RDPS_SeeingIndex_EAtm_RLatLon0.09_PT067H.grib2 2026-04-28 21:00 1.0M
20260428T18Z_MSC_RDPS_SensibleHeatNetFlux_Sfc_RLatLon0.09_PT067H.grib2 2026-04-28 21:00 320K
20260428T18Z_MSC_RDPS_ShowalterIndex_IsbL-0500_RLatLon0.09_PT067H.grib2 2026-04-28 21:00 2.6M
20260428T18Z_MSC_RDPS_SkyTransparencyIndex_EAtm_RLatLon0.09_PT067H.grib2 2026-04-28 21:00 710K
20260428T18Z_MSC_RDPS_Snow-Accum1h_Sfc_RLatLon0.09_PT067H.grib2 2026-04-28 21:00 457K
20260428T18Z_MSC_RDPS_Snow-Accum_Sfc_RLatLon0.09_PT067H.grib2 2026-04-28 21:00 788K
20260428T18Z_MSC_RDPS_SnowDensity_Sfc_RLatLon0.09_PT067H.grib2 2026-04-28 21:00 183K
20260428T18Z_MSC_RDPS_SnowDepth_Sfc_RLatLon0.09_PT067H.grib2 2026-04-28 21:00 681K
20260428T18Z_MSC_RDPS_SoilTemp_DBS-0to10cm_RLatLon0.09_PT067H.grib2 2026-04-28 21:00 241K
20260428T18Z_MSC_RDPS_SoilTemp_Sfc_RLatLon0.09_PT067H.grib2 2026-04-28 21:00 287K
20260428T18Z_MSC_RDPS_SoilVolumetricIceContent_Sfc_RLatLon0.09_PT067H.grib2 2026-04-28 21:00 164K
20260428T18Z_MSC_RDPS_SoilVolumetricWaterContent_DBS-0to10cm_RLatLon0.09_PT067H.grib2 2026-04-28 21:00 270K
20260428T18Z_MSC_RDPS_SoilVolumetricWaterContent_DBS-0to1cm_RLatLon0.09_PT067H.grib2 2026-04-28 21:00 339K
20260428T18Z_MSC_RDPS_SpecificHumidity_AGL-120m_RLatLon0.09_PT067H.grib2 2026-04-28 21:00 490K
20260428T18Z_MSC_RDPS_SpecificHumidity_AGL-2m_RLatLon0.09_PT067H.grib2 2026-04-28 21:00 658K
20260428T18Z_MSC_RDPS_SpecificHumidity_AGL-40m_RLatLon0.09_PT067H.grib2 2026-04-28 21:00 497K
20260428T18Z_MSC_RDPS_SpecificHumidity_AGL-80m_RLatLon0.09_PT067H.grib2 2026-04-28 21:00 493K
20260428T18Z_MSC_RDPS_SpecificHumidity_IsbL-0001_RLatLon0.09_PT067H.grib2 2026-04-28 21:00 359K
20260428T18Z_MSC_RDPS_SpecificHumidity_IsbL-0005_RLatLon0.09_PT067H.grib2 2026-04-28 21:00 354K
20260428T18Z_MSC_RDPS_SpecificHumidity_IsbL-0010_RLatLon0.09_PT067H.grib2 2026-04-28 21:00 389K
20260428T18Z_MSC_RDPS_SpecificHumidity_IsbL-0020_RLatLon0.09_PT067H.grib2 2026-04-28 21:00 377K
20260428T18Z_MSC_RDPS_SpecificHumidity_IsbL-0030_RLatLon0.09_PT067H.grib2 2026-04-28 21:00 470K
20260428T18Z_MSC_RDPS_SpecificHumidity_IsbL-0050_RLatLon0.09_PT067H.grib2 2026-04-28 21:00 440K
20260428T18Z_MSC_RDPS_SpecificHumidity_IsbL-0100_RLatLon0.09_PT067H.grib2 2026-04-28 21:00 525K
20260428T18Z_MSC_RDPS_SpecificHumidity_IsbL-0150_RLatLon0.09_PT067H.grib2 2026-04-28 21:00 461K
20260428T18Z_MSC_RDPS_SpecificHumidity_IsbL-0175_RLatLon0.09_PT067H.grib2 2026-04-28 21:00 416K
20260428T18Z_MSC_RDPS_SpecificHumidity_IsbL-0200_RLatLon0.09_PT067H.grib2 2026-04-28 21:00 440K
20260428T18Z_MSC_RDPS_SpecificHumidity_IsbL-0225_RLatLon0.09_PT067H.grib2 2026-04-28 21:00 443K
20260428T18Z_MSC_RDPS_SpecificHumidity_IsbL-0250_RLatLon0.09_PT067H.grib2 2026-04-28 21:00 505K
20260428T18Z_MSC_RDPS_SpecificHumidity_IsbL-0275_RLatLon0.09_PT067H.grib2 2026-04-28 21:00 469K
20260428T18Z_MSC_RDPS_SpecificHumidity_IsbL-0300_RLatLon0.09_PT067H.grib2 2026-04-28 21:00 443K
20260428T18Z_MSC_RDPS_SpecificHumidity_IsbL-0350_RLatLon0.09_PT067H.grib2 2026-04-28 21:00 434K
20260428T18Z_MSC_RDPS_SpecificHumidity_IsbL-0400_RLatLon0.09_PT067H.grib2 2026-04-28 21:00 513K
20260428T18Z_MSC_RDPS_SpecificHumidity_IsbL-0450_RLatLon0.09_PT067H.grib2 2026-04-28 21:00 565K
20260428T18Z_MSC_RDPS_SpecificHumidity_IsbL-0500_RLatLon0.09_PT067H.grib2 2026-04-28 21:00 502K
20260428T18Z_MSC_RDPS_SpecificHumidity_IsbL-0550_RLatLon0.09_PT067H.grib2 2026-04-28 21:00 572K
20260428T18Z_MSC_RDPS_SpecificHumidity_IsbL-0600_RLatLon0.09_PT067H.grib2 2026-04-28 21:00 624K
20260428T18Z_MSC_RDPS_SpecificHumidity_IsbL-0650_RLatLon0.09_PT067H.grib2 2026-04-28 21:00 539K
20260428T18Z_MSC_RDPS_SpecificHumidity_IsbL-0700_RLatLon0.09_PT067H.grib2 2026-04-28 21:00 580K
20260428T18Z_MSC_RDPS_SpecificHumidity_IsbL-0750_RLatLon0.09_PT067H.grib2 2026-04-28 21:00 632K
20260428T18Z_MSC_RDPS_SpecificHumidity_IsbL-0800_RLatLon0.09_PT067H.grib2 2026-04-28 21:00 708K
20260428T18Z_MSC_RDPS_SpecificHumidity_IsbL-0850_RLatLon0.09_PT067H.grib2 2026-04-28 21:00 797K
20260428T18Z_MSC_RDPS_SpecificHumidity_IsbL-0875_RLatLon0.09_PT067H.grib2 2026-04-28 21:00 825K
20260428T18Z_MSC_RDPS_SpecificHumidity_IsbL-0900_RLatLon0.09_PT067H.grib2 2026-04-28 21:00 838K
20260428T18Z_MSC_RDPS_SpecificHumidity_IsbL-0925_RLatLon0.09_PT067H.grib2 2026-04-28 21:00 838K
20260428T18Z_MSC_RDPS_SpecificHumidity_IsbL-0950_RLatLon0.09_PT067H.grib2 2026-04-28 21:00 841K
20260428T18Z_MSC_RDPS_SpecificHumidity_IsbL-0970_RLatLon0.09_PT067H.grib2 2026-04-28 21:00 832K
20260428T18Z_MSC_RDPS_SpecificHumidity_IsbL-0985_RLatLon0.09_PT067H.grib2 2026-04-28 21:00 684K
20260428T18Z_MSC_RDPS_SpecificHumidity_IsbL-1000_RLatLon0.09_PT067H.grib2 2026-04-28 21:00 677K
20260428T18Z_MSC_RDPS_SpecificHumidity_IsbL-1015_RLatLon0.09_PT067H.grib2 2026-04-28 21:00 666K
20260428T18Z_MSC_RDPS_SpecificHumidity_Sfc_RLatLon0.09_PT067H.grib2 2026-04-28 21:00 302K
20260428T18Z_MSC_RDPS_StormRelativeHelicity_EtaL-10000_RLatLon0.09_PT067H.grib2 2026-04-28 21:00 1.1M
20260428T18Z_MSC_RDPS_StormSeverityIndex_EtaL-10000_RLatLon0.09_PT067H.grib2 2026-04-28 21:00 1.1M
20260428T18Z_MSC_RDPS_Thickness_IsbL-0850to0700_RLatLon0.09_PT067H.grib2 2026-04-28 21:00 175K
20260428T18Z_MSC_RDPS_Thickness_IsbL-1000to0500_RLatLon0.09_PT067H.grib2 2026-04-28 21:00 196K
20260428T18Z_MSC_RDPS_Thickness_IsbL-1000to0850_RLatLon0.09_PT067H.grib2 2026-04-28 21:00 260K
20260428T18Z_MSC_RDPS_TotalCloudCover_Sfc_RLatLon0.09_PT067H.grib2 2026-04-28 21:00 657K
20260428T18Z_MSC_RDPS_TotalTotalsIndex_Sfc_RLatLon0.09_PT067H.grib2 2026-04-28 21:00 2.3M
20260428T18Z_MSC_RDPS_UVIndex-ClearSky_Sfc_RLatLon0.09_PT067H.grib2 2026-04-28 21:00 192K
20260428T18Z_MSC_RDPS_UVIndex_Sfc_RLatLon0.09_PT067H.grib2 2026-04-28 21:00 407K
20260428T18Z_MSC_RDPS_UpwardLongwaveRadiationFlux_NTAtm_RLatLon0.09_PT067H.grib2 2026-04-28 21:00 479K
20260428T18Z_MSC_RDPS_UpwardShortwaveRadiationFlux_NTAtm_RLatLon0.09_PT067H.grib2 2026-04-28 21:00 348K
20260428T18Z_MSC_RDPS_VerticalVelocity_IsbL-0250_RLatLon0.09_PT067H.grib2 2026-04-28 21:00 544K
20260428T18Z_MSC_RDPS_VerticalVelocity_IsbL-0500_RLatLon0.09_PT067H.grib2 2026-04-28 21:00 540K
20260428T18Z_MSC_RDPS_VerticalVelocity_IsbL-0700_RLatLon0.09_PT067H.grib2 2026-04-28 21:00 613K
20260428T18Z_MSC_RDPS_VerticalVelocity_IsbL-0850_RLatLon0.09_PT067H.grib2 2026-04-28 21:00 702K
20260428T18Z_MSC_RDPS_VerticalWindShear_EtaL-6500_RLatLon0.09_PT067H.grib2 2026-04-28 21:00 1.2M
20260428T18Z_MSC_RDPS_WindChill_Sfc_RLatLon0.09_PT067H.grib2 2026-04-28 21:00 1.2M
20260428T18Z_MSC_RDPS_WindDir_AGL-10m_RLatLon0.09_PT067H.grib2 2026-04-28 21:00 967K
20260428T18Z_MSC_RDPS_WindDir_AGL-120m_RLatLon0.09_PT067H.grib2 2026-04-28 21:00 604K
20260428T18Z_MSC_RDPS_WindDir_AGL-40m_RLatLon0.09_PT067H.grib2 2026-04-28 21:00 632K
20260428T18Z_MSC_RDPS_WindDir_AGL-80m_RLatLon0.09_PT067H.grib2 2026-04-28 21:00 615K
20260428T18Z_MSC_RDPS_WindDir_IsbL-0001_RLatLon0.09_PT067H.grib2 2026-04-28 21:00 305K
20260428T18Z_MSC_RDPS_WindDir_IsbL-0005_RLatLon0.09_PT067H.grib2 2026-04-28 21:00 379K
20260428T18Z_MSC_RDPS_WindDir_IsbL-0010_RLatLon0.09_PT067H.grib2 2026-04-28 21:00 375K
20260428T18Z_MSC_RDPS_WindDir_IsbL-0020_RLatLon0.09_PT067H.grib2 2026-04-28 21:00 420K
20260428T18Z_MSC_RDPS_WindDir_IsbL-0030_RLatLon0.09_PT067H.grib2 2026-04-28 21:00 417K
20260428T18Z_MSC_RDPS_WindDir_IsbL-0050_RLatLon0.09_PT067H.grib2 2026-04-28 21:00 425K
20260428T18Z_MSC_RDPS_WindDir_IsbL-0100_RLatLon0.09_PT067H.grib2 2026-04-28 21:00 419K
20260428T18Z_MSC_RDPS_WindDir_IsbL-0150_RLatLon0.09_PT067H.grib2 2026-04-28 21:00 416K
20260428T18Z_MSC_RDPS_WindDir_IsbL-0175_RLatLon0.09_PT067H.grib2 2026-04-28 21:00 441K
20260428T18Z_MSC_RDPS_WindDir_IsbL-0200_RLatLon0.09_PT067H.grib2 2026-04-28 21:00 450K
20260428T18Z_MSC_RDPS_WindDir_IsbL-0225_RLatLon0.09_PT067H.grib2 2026-04-28 21:00 452K
20260428T18Z_MSC_RDPS_WindDir_IsbL-0250_RLatLon0.09_PT067H.grib2 2026-04-28 21:00 451K
20260428T18Z_MSC_RDPS_WindDir_IsbL-0275_RLatLon0.09_PT067H.grib2 2026-04-28 21:00 474K
20260428T18Z_MSC_RDPS_WindDir_IsbL-0300_RLatLon0.09_PT067H.grib2 2026-04-28 21:00 474K
20260428T18Z_MSC_RDPS_WindDir_IsbL-0350_RLatLon0.09_PT067H.grib2 2026-04-28 21:00 492K
20260428T18Z_MSC_RDPS_WindDir_IsbL-0400_RLatLon0.09_PT067H.grib2 2026-04-28 21:00 508K
20260428T18Z_MSC_RDPS_WindDir_IsbL-0450_RLatLon0.09_PT067H.grib2 2026-04-28 21:00 520K
20260428T18Z_MSC_RDPS_WindDir_IsbL-0500_RLatLon0.09_PT067H.grib2 2026-04-28 21:00 536K
20260428T18Z_MSC_RDPS_WindDir_IsbL-0550_RLatLon0.09_PT067H.grib2 2026-04-28 21:00 552K
20260428T18Z_MSC_RDPS_WindDir_IsbL-0600_RLatLon0.09_PT067H.grib2 2026-04-28 21:00 575K
20260428T18Z_MSC_RDPS_WindDir_IsbL-0650_RLatLon0.09_PT067H.grib2 2026-04-28 21:00 613K
20260428T18Z_MSC_RDPS_WindDir_IsbL-0700_RLatLon0.09_PT067H.grib2 2026-04-28 21:00 656K
20260428T18Z_MSC_RDPS_WindDir_IsbL-0750_RLatLon0.09_PT067H.grib2 2026-04-28 21:00 705K
20260428T18Z_MSC_RDPS_WindDir_IsbL-0800_RLatLon0.09_PT067H.grib2 2026-04-28 21:00 767K
20260428T18Z_MSC_RDPS_WindDir_IsbL-0850_RLatLon0.09_PT067H.grib2 2026-04-28 21:00 840K
20260428T18Z_MSC_RDPS_WindDir_IsbL-0875_RLatLon0.09_PT067H.grib2 2026-04-28 21:00 873K
20260428T18Z_MSC_RDPS_WindDir_IsbL-0900_RLatLon0.09_PT067H.grib2 2026-04-28 21:00 890K
20260428T18Z_MSC_RDPS_WindDir_IsbL-0925_RLatLon0.09_PT067H.grib2 2026-04-28 21:00 901K
20260428T18Z_MSC_RDPS_WindDir_IsbL-0950_RLatLon0.09_PT067H.grib2 2026-04-28 21:00 904K
20260428T18Z_MSC_RDPS_WindDir_IsbL-0970_RLatLon0.09_PT067H.grib2 2026-04-28 21:00 914K
20260428T18Z_MSC_RDPS_WindDir_IsbL-0985_RLatLon0.09_PT067H.grib2 2026-04-28 21:00 924K
20260428T18Z_MSC_RDPS_WindDir_IsbL-1000_RLatLon0.09_PT067H.grib2 2026-04-28 21:00 939K
20260428T18Z_MSC_RDPS_WindDir_IsbL-1015_RLatLon0.09_PT067H.grib2 2026-04-28 21:00 955K
20260428T18Z_MSC_RDPS_WindGust-Max_AGL-10m_RLatLon0.09_PT067H.grib2 2026-04-28 21:00 1.0M
20260428T18Z_MSC_RDPS_WindGust-Min_AGL-10m_RLatLon0.09_PT067H.grib2 2026-04-28 21:00 1.0M
20260428T18Z_MSC_RDPS_WindGust_AGL-10m_RLatLon0.09_PT067H.grib2 2026-04-28 21:00 1.0M
20260428T18Z_MSC_RDPS_WindSpeed_AGL-10m_RLatLon0.09_PT067H.grib2 2026-04-28 21:00 840K
20260428T18Z_MSC_RDPS_WindSpeed_AGL-120m_RLatLon0.09_PT067H.grib2 2026-04-28 21:00 543K
20260428T18Z_MSC_RDPS_WindSpeed_AGL-40m_RLatLon0.09_PT067H.grib2 2026-04-28 21:00 671K
20260428T18Z_MSC_RDPS_WindSpeed_AGL-80m_RLatLon0.09_PT067H.grib2 2026-04-28 21:00 542K
20260428T18Z_MSC_RDPS_WindSpeed_IsbL-0001_RLatLon0.09_PT067H.grib2 2026-04-28 21:00 331K
20260428T18Z_MSC_RDPS_WindSpeed_IsbL-0005_RLatLon0.09_PT067H.grib2 2026-04-28 21:00 382K
20260428T18Z_MSC_RDPS_WindSpeed_IsbL-0010_RLatLon0.09_PT067H.grib2 2026-04-28 21:00 304K
20260428T18Z_MSC_RDPS_WindSpeed_IsbL-0020_RLatLon0.09_PT067H.grib2 2026-04-28 21:00 324K
20260428T18Z_MSC_RDPS_WindSpeed_IsbL-0030_RLatLon0.09_PT067H.grib2 2026-04-28 21:00 320K
20260428T18Z_MSC_RDPS_WindSpeed_IsbL-0050_RLatLon0.09_PT067H.grib2 2026-04-28 21:00 349K
20260428T18Z_MSC_RDPS_WindSpeed_IsbL-0100_RLatLon0.09_PT067H.grib2 2026-04-28 21:00 471K
20260428T18Z_MSC_RDPS_WindSpeed_IsbL-0150_RLatLon0.09_PT067H.grib2 2026-04-28 21:00 375K
20260428T18Z_MSC_RDPS_WindSpeed_IsbL-0175_RLatLon0.09_PT067H.grib2 2026-04-28 21:00 420K
20260428T18Z_MSC_RDPS_WindSpeed_IsbL-0200_RLatLon0.09_PT067H.grib2 2026-04-28 21:00 438K
20260428T18Z_MSC_RDPS_WindSpeed_IsbL-0225_RLatLon0.09_PT067H.grib2 2026-04-28 21:00 445K
20260428T18Z_MSC_RDPS_WindSpeed_IsbL-0250_RLatLon0.09_PT067H.grib2 2026-04-28 21:00 448K
20260428T18Z_MSC_RDPS_WindSpeed_IsbL-0275_RLatLon0.09_PT067H.grib2 2026-04-28 21:00 464K
20260428T18Z_MSC_RDPS_WindSpeed_IsbL-0300_RLatLon0.09_PT067H.grib2 2026-04-28 21:00 462K
20260428T18Z_MSC_RDPS_WindSpeed_IsbL-0350_RLatLon0.09_PT067H.grib2 2026-04-28 21:00 472K
20260428T18Z_MSC_RDPS_WindSpeed_IsbL-0400_RLatLon0.09_PT067H.grib2 2026-04-28 21:00 473K
20260428T18Z_MSC_RDPS_WindSpeed_IsbL-0450_RLatLon0.09_PT067H.grib2 2026-04-28 21:00 456K
20260428T18Z_MSC_RDPS_WindSpeed_IsbL-0500_RLatLon0.09_PT067H.grib2 2026-04-28 21:00 457K
20260428T18Z_MSC_RDPS_WindSpeed_IsbL-0550_RLatLon0.09_PT067H.grib2 2026-04-28 21:00 456K
20260428T18Z_MSC_RDPS_WindSpeed_IsbL-0600_RLatLon0.09_PT067H.grib2 2026-04-28 21:00 582K
20260428T18Z_MSC_RDPS_WindSpeed_IsbL-0650_RLatLon0.09_PT067H.grib2 2026-04-28 21:00 604K
20260428T18Z_MSC_RDPS_WindSpeed_IsbL-0700_RLatLon0.09_PT067H.grib2 2026-04-28 21:00 629K
20260428T18Z_MSC_RDPS_WindSpeed_IsbL-0750_RLatLon0.09_PT067H.grib2 2026-04-28 21:00 702K
20260428T18Z_MSC_RDPS_WindSpeed_IsbL-0800_RLatLon0.09_PT067H.grib2 2026-04-28 21:00 749K
20260428T18Z_MSC_RDPS_WindSpeed_IsbL-0850_RLatLon0.09_PT067H.grib2 2026-04-28 21:00 809K
20260428T18Z_MSC_RDPS_WindSpeed_IsbL-0875_RLatLon0.09_PT067H.grib2 2026-04-28 21:00 832K
20260428T18Z_MSC_RDPS_WindSpeed_IsbL-0900_RLatLon0.09_PT067H.grib2 2026-04-28 21:00 847K
20260428T18Z_MSC_RDPS_WindSpeed_IsbL-0925_RLatLon0.09_PT067H.grib2 2026-04-28 21:00 859K
20260428T18Z_MSC_RDPS_WindSpeed_IsbL-0950_RLatLon0.09_PT067H.grib2 2026-04-28 21:00 859K
20260428T18Z_MSC_RDPS_WindSpeed_IsbL-0970_RLatLon0.09_PT067H.grib2 2026-04-28 21:00 859K
20260428T18Z_MSC_RDPS_WindSpeed_IsbL-0985_RLatLon0.09_PT067H.grib2 2026-04-28 21:00 853K
20260428T18Z_MSC_RDPS_WindSpeed_IsbL-1000_RLatLon0.09_PT067H.grib2 2026-04-28 21:00 849K
20260428T18Z_MSC_RDPS_WindSpeed_IsbL-1015_RLatLon0.09_PT067H.grib2 2026-04-28 21:00 839K
20260428T18Z_MSC_RDPS_WindU_AGL-10m_RLatLon0.09_PT067H.grib2 2026-04-28 21:00 433K
20260428T18Z_MSC_RDPS_WindU_AGL-120m_RLatLon0.09_PT067H.grib2 2026-04-28 21:00 539K
20260428T18Z_MSC_RDPS_WindU_AGL-40m_RLatLon0.09_PT067H.grib2 2026-04-28 21:00 540K
20260428T18Z_MSC_RDPS_WindU_AGL-80m_RLatLon0.09_PT067H.grib2 2026-04-28 21:00 539K
20260428T18Z_MSC_RDPS_WindU_IsbL-0001_RLatLon0.09_PT067H.grib2 2026-04-28 21:00 244K
20260428T18Z_MSC_RDPS_WindU_IsbL-0005_RLatLon0.09_PT067H.grib2 2026-04-28 21:00 286K
20260428T18Z_MSC_RDPS_WindU_IsbL-0010_RLatLon0.09_PT067H.grib2 2026-04-28 21:00 298K
20260428T18Z_MSC_RDPS_WindU_IsbL-0020_RLatLon0.09_PT067H.grib2 2026-04-28 21:00 316K
20260428T18Z_MSC_RDPS_WindU_IsbL-0030_RLatLon0.09_PT067H.grib2 2026-04-28 21:00 314K
20260428T18Z_MSC_RDPS_WindU_IsbL-0050_RLatLon0.09_PT067H.grib2 2026-04-28 21:00 343K
20260428T18Z_MSC_RDPS_WindU_IsbL-0100_RLatLon0.09_PT067H.grib2 2026-04-28 21:00 427K
20260428T18Z_MSC_RDPS_WindU_IsbL-0150_RLatLon0.09_PT067H.grib2 2026-04-28 21:00 390K
20260428T18Z_MSC_RDPS_WindU_IsbL-0175_RLatLon0.09_PT067H.grib2 2026-04-28 21:00 413K
20260428T18Z_MSC_RDPS_WindU_IsbL-0200_RLatLon0.09_PT067H.grib2 2026-04-28 21:00 333K
20260428T18Z_MSC_RDPS_WindU_IsbL-0225_RLatLon0.09_PT067H.grib2 2026-04-28 21:00 339K
20260428T18Z_MSC_RDPS_WindU_IsbL-0250_RLatLon0.09_PT067H.grib2 2026-04-28 21:00 339K
20260428T18Z_MSC_RDPS_WindU_IsbL-0275_RLatLon0.09_PT067H.grib2 2026-04-28 21:00 353K
20260428T18Z_MSC_RDPS_WindU_IsbL-0300_RLatLon0.09_PT067H.grib2 2026-04-28 21:00 350K
20260428T18Z_MSC_RDPS_WindU_IsbL-0350_RLatLon0.09_PT067H.grib2 2026-04-28 21:00 357K
20260428T18Z_MSC_RDPS_WindU_IsbL-0400_RLatLon0.09_PT067H.grib2 2026-04-28 21:00 360K
20260428T18Z_MSC_RDPS_WindU_IsbL-0450_RLatLon0.09_PT067H.grib2 2026-04-28 21:00 462K
20260428T18Z_MSC_RDPS_WindU_IsbL-0500_RLatLon0.09_PT067H.grib2 2026-04-28 21:00 464K
20260428T18Z_MSC_RDPS_WindU_IsbL-0550_RLatLon0.09_PT067H.grib2 2026-04-28 21:00 464K
20260428T18Z_MSC_RDPS_WindU_IsbL-0600_RLatLon0.09_PT067H.grib2 2026-04-28 21:00 474K
20260428T18Z_MSC_RDPS_WindU_IsbL-0650_RLatLon0.09_PT067H.grib2 2026-04-28 21:00 491K
20260428T18Z_MSC_RDPS_WindU_IsbL-0700_RLatLon0.09_PT067H.grib2 2026-04-28 21:00 498K
20260428T18Z_MSC_RDPS_WindU_IsbL-0750_RLatLon0.09_PT067H.grib2 2026-04-28 21:00 524K
20260428T18Z_MSC_RDPS_WindU_IsbL-0800_RLatLon0.09_PT067H.grib2 2026-04-28 21:00 566K
20260428T18Z_MSC_RDPS_WindU_IsbL-0850_RLatLon0.09_PT067H.grib2 2026-04-28 21:00 619K
20260428T18Z_MSC_RDPS_WindU_IsbL-0875_RLatLon0.09_PT067H.grib2 2026-04-28 21:00 637K
20260428T18Z_MSC_RDPS_WindU_IsbL-0900_RLatLon0.09_PT067H.grib2 2026-04-28 21:00 648K
20260428T18Z_MSC_RDPS_WindU_IsbL-0925_RLatLon0.09_PT067H.grib2 2026-04-28 21:00 656K
20260428T18Z_MSC_RDPS_WindU_IsbL-0950_RLatLon0.09_PT067H.grib2 2026-04-28 21:00 657K
20260428T18Z_MSC_RDPS_WindU_IsbL-0970_RLatLon0.09_PT067H.grib2 2026-04-28 21:00 655K
20260428T18Z_MSC_RDPS_WindU_IsbL-0985_RLatLon0.09_PT067H.grib2 2026-04-28 21:00 651K
20260428T18Z_MSC_RDPS_WindU_IsbL-1000_RLatLon0.09_PT067H.grib2 2026-04-28 21:00 788K
20260428T18Z_MSC_RDPS_WindU_IsbL-1015_RLatLon0.09_PT067H.grib2 2026-04-28 21:00 827K
20260428T18Z_MSC_RDPS_WindV_AGL-10m_RLatLon0.09_PT067H.grib2 2026-04-28 21:00 430K
20260428T18Z_MSC_RDPS_WindV_AGL-120m_RLatLon0.09_PT067H.grib2 2026-04-28 21:00 535K
20260428T18Z_MSC_RDPS_WindV_AGL-40m_RLatLon0.09_PT067H.grib2 2026-04-28 21:00 534K
20260428T18Z_MSC_RDPS_WindV_AGL-80m_RLatLon0.09_PT067H.grib2 2026-04-28 21:00 534K
20260428T18Z_MSC_RDPS_WindV_IsbL-0001_RLatLon0.09_PT067H.grib2 2026-04-28 21:00 245K
20260428T18Z_MSC_RDPS_WindV_IsbL-0005_RLatLon0.09_PT067H.grib2 2026-04-28 21:00 287K
20260428T18Z_MSC_RDPS_WindV_IsbL-0010_RLatLon0.09_PT067H.grib2 2026-04-28 21:00 301K
20260428T18Z_MSC_RDPS_WindV_IsbL-0020_RLatLon0.09_PT067H.grib2 2026-04-28 21:00 319K
20260428T18Z_MSC_RDPS_WindV_IsbL-0030_RLatLon0.09_PT067H.grib2 2026-04-28 21:00 317K
20260428T18Z_MSC_RDPS_WindV_IsbL-0050_RLatLon0.09_PT067H.grib2 2026-04-28 21:00 343K
20260428T18Z_MSC_RDPS_WindV_IsbL-0100_RLatLon0.09_PT067H.grib2 2026-04-28 21:00 424K
20260428T18Z_MSC_RDPS_WindV_IsbL-0150_RLatLon0.09_PT067H.grib2 2026-04-28 21:00 389K
20260428T18Z_MSC_RDPS_WindV_IsbL-0175_RLatLon0.09_PT067H.grib2 2026-04-28 21:00 413K
20260428T18Z_MSC_RDPS_WindV_IsbL-0200_RLatLon0.09_PT067H.grib2 2026-04-28 21:00 332K
20260428T18Z_MSC_RDPS_WindV_IsbL-0225_RLatLon0.09_PT067H.grib2 2026-04-28 21:00 336K
20260428T18Z_MSC_RDPS_WindV_IsbL-0250_RLatLon0.09_PT067H.grib2 2026-04-28 21:00 337K
20260428T18Z_MSC_RDPS_WindV_IsbL-0275_RLatLon0.09_PT067H.grib2 2026-04-28 21:00 351K
20260428T18Z_MSC_RDPS_WindV_IsbL-0300_RLatLon0.09_PT067H.grib2 2026-04-28 21:00 348K
20260428T18Z_MSC_RDPS_WindV_IsbL-0350_RLatLon0.09_PT067H.grib2 2026-04-28 21:00 456K
20260428T18Z_MSC_RDPS_WindV_IsbL-0400_RLatLon0.09_PT067H.grib2 2026-04-28 21:00 458K
20260428T18Z_MSC_RDPS_WindV_IsbL-0450_RLatLon0.09_PT067H.grib2 2026-04-28 21:00 459K
20260428T18Z_MSC_RDPS_WindV_IsbL-0500_RLatLon0.09_PT067H.grib2 2026-04-28 21:00 460K
20260428T18Z_MSC_RDPS_WindV_IsbL-0550_RLatLon0.09_PT067H.grib2 2026-04-28 21:00 460K
20260428T18Z_MSC_RDPS_WindV_IsbL-0600_RLatLon0.09_PT067H.grib2 2026-04-28 21:00 451K
20260428T18Z_MSC_RDPS_WindV_IsbL-0650_RLatLon0.09_PT067H.grib2 2026-04-28 21:00 471K
20260428T18Z_MSC_RDPS_WindV_IsbL-0700_RLatLon0.09_PT067H.grib2 2026-04-28 21:00 492K
20260428T18Z_MSC_RDPS_WindV_IsbL-0750_RLatLon0.09_PT067H.grib2 2026-04-28 21:00 518K
20260428T18Z_MSC_RDPS_WindV_IsbL-0800_RLatLon0.09_PT067H.grib2 2026-04-28 21:00 559K
20260428T18Z_MSC_RDPS_WindV_IsbL-0850_RLatLon0.09_PT067H.grib2 2026-04-28 21:00 748K
20260428T18Z_MSC_RDPS_WindV_IsbL-0875_RLatLon0.09_PT067H.grib2 2026-04-28 21:00 770K
20260428T18Z_MSC_RDPS_WindV_IsbL-0900_RLatLon0.09_PT067H.grib2 2026-04-28 21:00 785K
20260428T18Z_MSC_RDPS_WindV_IsbL-0925_RLatLon0.09_PT067H.grib2 2026-04-28 21:00 794K
20260428T18Z_MSC_RDPS_WindV_IsbL-0950_RLatLon0.09_PT067H.grib2 2026-04-28 21:00 793K
20260428T18Z_MSC_RDPS_WindV_IsbL-0970_RLatLon0.09_PT067H.grib2 2026-04-28 21:00 792K
20260428T18Z_MSC_RDPS_WindV_IsbL-0985_RLatLon0.09_PT067H.grib2 2026-04-28 21:00 787K
20260428T18Z_MSC_RDPS_WindV_IsbL-1000_RLatLon0.09_PT067H.grib2 2026-04-28 21:00 828K
20260428T18Z_MSC_RDPS_WindV_IsbL-1015_RLatLon0.09_PT067H.grib2 2026-04-28 21:00 821K